Location: Cork
(51.8990°N, 8.4960°W)
Time: 05:39:53
(UTC+01:00)

Iridium 66 - Visible Passes

Search period start: 26 May 2016 00:00
Search period end: 05 June 2016 00:00
Orbit: 776 x 779 km, 86.4° (Epoch: 25 May)

Date Brightness Start Highest point End Pass type
(mag) Time Alt. Az. Time Alt. Az. Time Alt. Az.
26 May 8.5 00:26:17 10° NW 00:28:51 14° WNW 00:31:25 10° WSW visible
26 May 8.1 23:51:43 10° NNW 23:55:42 23° WNW 23:59:40 10° SW visible
27 May 7.4 23:17:41 10° NNW 23:22:26 36° W 23:27:10 10° SSW visible
28 May 6.6 22:43:54 10° N 22:49:04 60° W 22:54:10 10° SSW visible
29 May 8.5 23:52:20 10° NW 23:55:35 17° WNW 23:58:50 10° WSW visible
30 May 7.9 23:18:03 10° NNW 23:22:23 27° W 23:26:43 10° SW visible
31 May 7.2 22:44:08 10° NNW 22:49:05 44° W 22:53:59 10° SSW visible
01 Jun 8.7 23:53:19 10° NW 23:55:25 12° WNW 23:57:31 10° W visible
02 Jun 8.4 23:18:32 10° NNW 23:22:18 20° WNW 23:26:03 10° WSW visible
03 Jun 7.7 22:44:25 10° NNW 22:49:03 33° W 22:53:39 10° SW visible
